Wind_Speed
34 40 35 35 23 27 20 27 36 35 32 29 24 23 24 25 25 22 21 19 26 46 51 53 48 53 45 42 46 47 42 36 31 29 26 20 18 16 12 11 9 8 6
40 38 33 24 21 23 21 26 34 36 33 27 23 23 23 22 20 17 16 15 20 34 53 51 50 52 45 42 46 50 46 39 33 32 28 22 19 19 17 16 13 10 9
35 34 30 25 21 23 24 29 37 35 32 24 23 22 20 19 19 16 15 20 26 31 37 42 43 47 45 42 45 49 49 45 37 35 23 15 10 22 21 21 18 15 13
26 28 31 30 24 23 23 31 35 35 29 25 26 25 26 26 24 22 18 23 28 35 30 34 34 39 39 41 45 49 49 48 43 36 30 21 14 16 13 23 20 17 16
23 26 29 28 27 23 24 30 37 33 28 28 28 25 25 23 23 22 24 25 28 32 34 33 35 34 38 39 44 49 51 49 47 44 37 23 17 16 14 13 19 19 15
25 25 30 23 20 25 22 31 39 34 29 30 29 26 25 25 23 26 28 31 32 33 33 37 36 37 36 40 44 48 50 49 49 44 38 34 28 21 19 14 12 12 10
29 37 29 32 22 25 25 33 41 36 32 31 30 28 26 24 25 25 27 30 35 36 36 41 41 44 41 41 44 49 50 49 50 45 40 35 32 23 17 14 13 13 10
30 33 35 34 26 23 26 33 42 37 33 32 29 28 27 27 28 28 27 30 34 39 40 44 42 43 43 41 45 47 48 47 46 41 42 39 33 27 26 26 16 12 17
34 30 34 36 32 26 26 32 42 39 33 32 28 27 26 25 25 26 29 33 34 36 44 44 44 47 46 45 43 46 49 46 45 42 41 42 39 32 31 22 20 17 20
35 29 33 42 38 27 23 26 38 37 31 31 27 28 26 24 21 19 19 23 28 33 39 43 44 54 52 52 50 47 49 48 49 46 46 43 41 43 39 29 25 22 22
35 31 36 44 41 22 22 24 35 33 27 28 25 28 26 23 19 16 15 20 22 22 23 33 46 52 59 54 51 45 45 51 50 48 48 41 43 36 27 28 32 31 26
26 32 39 45 29 20 21 24 33 30 27 26 23 26 25 23 20 15 11 11 14 14 13 23 29 41 49 53 52 46 47 41 38 41 35 37 28 25 29 29 27 28 28
24 33 41 40 21 18 20 23 27 28 26 23 23 23 24 24 21 17 12 9 8 15 14 14 30 35 30 39 43 46 34 38 37 36 34 28 22 21 25 25 26 29 31
23 26 35 37 23 18 19 22 25 24 25 23 24 23 23 24 23 18 14 10 8 11 12 18 20 28 34 37 37 30 32 39 37 26 23 26 22 23 24 25 27 27 30
19 28 32 38 31 17 16 17 18 21 25 24 23 22 22 23 21 20 16 13 11 9 9 13 21 24 30 35 37 28 27 27 25 24 21 22 22 22 24 24 26 29 27
15 14 24 31 29 22 14 15 13 18 22 24 23 22 21 23 21 20 17 15 14 12 11 14 14 18 23 21 20 19 22 23 21 20 22 23 23 24 26 27 28 27 21
9 14 17 22 27 25 16 9 14 14 19 22 22 23 22 22 23 21 17 15 17 16 15 14 14 16 15 18 19 17 17 19 19 19 21 22 22 23 21 17 15 12 11
12 16 22 21 20 24 13 12 12 20 19 21 22 21 20 20 21 20 19 17 18 18 16 15 14 14 15 15 16 16 18 19 22 23 23 21 18 13 12 11 11 10 8
13 15 18 21 20 20 13 12 11 20 13 20 23 21 18 19 24 22 21 19 20 18 18 17 16 15 15 15 16 18 21 22 22 21 19 18 16 15 13 11 9 7 5
14 15 16 17 17 17 11 8 15 14 16 19 21 21 22 18 20 21 22 21 20 18 17 17 18 18 16 17 17 20 23 25 25 24 21 19 17 18 12 7 7 6 6
15 16 14 14 15 17 11 4 16 21 21 21 21 21 23 20 19 18 21 22 22 20 20 20 19 18 18 19 23 24 24 26 28 27 24 21 17 13 13 10 6 5 5
17 17 15 15 16 14 10 1 10 15 17 22 21 26 25 19 19 23 25 26 25 25 24 24 21 18 17 17 21 27 28 29 27 27 25 19 16 14 11 10 10 10 8
17 17 16 15 13 11 8 4 3 8 18 17 19 23 23 22 18 27 31 32 32 33 31 29 28 25 20 18 17 20 23 22 25 22 18 17 13 11 10 8 9 10 8
16 15 15 14 13 11 8 6 0 5 12 20 24 26 26 22 17 22 26 28 30 31 33 32 31 29 29 29 27 27 24 21 18 19 19 16 13 12 13 13 12 11 10
13 14 14 13 12 10 8 5 3 2 9 16 21 24 26 27 29 26 24 27 28 30 34 33 32 35 36 31 25 23 20 19 18 17 17 18 17 16 14 13 11 12 11
9 10 10 10 9 9 7 5 3 3 9 14 17 19 23 25 26 27 29 21 20 20 23 29 30 30 28 28 23 21 18 14 15 17 17 17 16 14 13 12 11 11 10
Wind_Direction
311 310 308 304 286 295 259 241 227 225 220 222 226 224 222 222 228 242 255 243 229 220 188 201 201 195 198 195 195 195 197 193 195 187 182 187 191 191 193 195 188 189 186
314 320 313 292 292 288 260 236 221 222 221 225 225 224 220 221 229 236 255 218 196 195 194 201 203 194 198 196 197 196 193 196 193 190 180 181 190 197 201 205 204 198 212
319 324 319 300 293 281 258 233 216 216 222 221 220 213 211 217 222 208 213 188 186 186 194 200 201 197 198 197 199 201 200 196 191 200 190 169 194 202 209 212 213 214 217
328 317 315 303 294 280 258 231 216 217 219 216 216 213 208 209 210 197 194 184 190 192 194 194 199 200 200 201 201 202 203 203 197 198 203 204 199 187 206 216 218 221 231
331 337 335 295 293 277 256 228 217 217 218 217 217 216 210 215 212 196 198 199 202 200 205 205 204 207 209 206 207 205 205 205 207 207 200 198 201 207 193 201 216 228 229
349 340 347 334 274 265 250 224 216 216 218 219 216 219 211 206 209 207 200 191 205 207 208 202 206 214 215 213 210 211 209 208 212 212 211 212 211 208 201 187 199 216 221
355 356 348 352 307 257 245 224 215 213 217 219 217 215 212 211 210 212 211 211 207 203 216 212 212 216 221 218 214 214 212 212 215 216 219 216 219 217 194 188 177 193 214
344 346 354 357 333 290 258 229 217 213 214 215 218 213 210 211 217 216 216 219 220 219 215 216 219 220 219 222 219 217 217 216 216 217 219 213 211 208 201 197 205 225 256
338 339 344 345 336 309 271 240 220 215 214 218 217 211 209 212 216 221 221 222 223 226 228 222 225 226 225 222 220 217 217 216 223 222 226 216 214 203 212 221 240 245 254
341 333 340 338 332 300 272 249 224 221 215 217 216 210 207 212 213 222 219 226 227 232 238 234 227 219 225 228 221 215 215 217 219 226 228 227 229 231 220 244 239 240 257
342 345 340 331 333 286 263 245 221 216 219 217 212 209 206 207 202 206 217 233 231 231 239 245 233 212 219 222 223 217 220 217 219 227 233 240 237 227 229 243 243 250 256
345 354 343 335 324 266 250 233 220 213 222 213 213 211 208 204 205 198 204 219 229 241 239 237 222 214 216 217 227 212 220 206 211 230 229 219 203 223 239 239 241 248 258
343 354 342 342 321 268 251 232 219 211 220 212 216 212 210 209 203 200 192 201 220 231 232 232 216 201 218 221 219 207 221 209 215 222 211 214 228 239 234 237 246 257 262
2 346 331 338 341 301 269 238 218 214 217 212 212 213 210 213 210 200 196 202 203 201 215 223 226 223 214 204 208 208 203 204 200 204 216 227 234 233 242 248 255 260 263
359 344 325 335 342 340 267 255 233 226 220 213 210 208 210 212 211 202 200 201 206 201 197 206 205 207 201 197 197 202 203 191 207 217 218 220 227 239 247 252 260 266 263
339 311 315 325 334 339 322 250 248 231 225 220 215 213 212 209 210 204 206 204 200 196 191 190 197 210 208 214 194 185 201 209 208 213 222 233 241 250 256 264 261 261 259
336 314 305 313 331 333 329 274 250 250 229 221 218 214 210 207 208 204 210 207 203 195 188 185 188 196 197 200 198 194 201 209 215 230 239 243 247 255 259 259 255 238 220
322 321 319 322 328 321 321 295 226 232 222 216 213 211 207 202 200 203 206 202 205 202 195 190 193 190 194 196 203 207 213 217 222 228 229 231 224 211 212 200 184 171 166
329 323 320 321 326 317 307 283 266 217 222 207 206 205 205 195 195 197 201 200 205 201 203 202 199 195 204 202 203 211 216 215 207 202 194 195 191 173 159 165 159 141 87
348 334 329 321 327 325 329 224 256 238 232 207 201 201 204 196 192 194 202 202 204 208 205 203 208 201 218 209 213 218 217 204 191 183 175 168 170 160 145 137 91 78 89
347 346 335 338 346 345 355 215 200 213 221 206 195 199 205 196 196 192 199 203 202 204 201 202 198 197 202 217 212 214 212 201 181 172 160 148 141 110 91 87 89 87 70
345 345 346 347 353 2 5 358 164 179 186 193 198 196 194 192 195 204 199 198 202 198 189 184 173 175 182 190 195 197 195 180 171 145 134 124 110 108 116 129 118 95 82
350 352 351 353 352 13 17 19 165 182 171 197 200 193 192 181 192 196 188 182 184 184 175 171 165 161 160 155 159 155 144 139 137 126 113 103 112 121 118 110 110 103 95
352 360 358 360 360 11 30 33 51 193 181 173 180 175 171 160 175 191 186 181 175 178 173 170 164 154 148 139 136 132 132 129 123 120 122 125 125 128 124 115 111 98 83
358 4 10 8 9 9 17 51 63 134 183 172 163 163 163 166 174 175 174 176 172 177 169 159 151 144 135 133 134 133 130 126 122 133 137 137 131 126 120 114 102 88 78
12 9 13 8 12 13 24 44 69 135 170 168 160 158 160 160 158 150 128 125 135 138 136 131 132 132 131 131 133 133 127 133 133 140 136 128 123 121 116 110 100 89 75
Height
1413 1410 1407 1404 1401 1401 1401 1404 1409 1418 1422 1425 1429 1431 1433 1436 1438 1440 1439 1438 1438 1445 1444 1456 1468 1479 1487 1494 1503 1511 1516 1524 1530 1535 1540 1543 1547 1549 1551 1554 1557 1559 1561
1408 1403 1399 1395 1395 1395 1395 1399 1404 1412 1417 1421 1424 1426 1429 1432 1435 1436 1434 1436 1436 1437 1443 1453 1464 1476 1484 1491 1498 1505 1512 1520 1526 1531 1535 1540 1545 1546 1549 1552 1555 1557 1560
1405 1397 1393 1391 1390 1389 1391 1394 1399 1405 1412 1417 1421 1423 1427 1430 1431 1433 1433 1435 1438 1442 1448 1454 1463 1474 1481 1487 1494 1501 1508 1514 1521 1526 1529 1534 1537 1542 1546 1549 1552 1554 1556
1402 1396 1391 1388 1387 1387 1388 1393 1399 1402 1408 1414 1417 1419 1421 1424 1427 1431 1432 1435 1439 1444 1449 1456 1464 1471 1477 1484 1491 1499 1505 1510 1515 1522 1526 1530 1533 1538 1543 1546 1549 1552 1553
1400 1395 1389 1384 1384 1383 1384 1389 1395 1399 1405 1411 1414 1416 1419 1423 1426 1430 1432 1435 1440 1444 1448 1455 1461 1468 1474 1482 1488 1494 1501 1506 1512 1516 1521 1527 1531 1535 1537 1540 1545 1548 1551
1398 1393 1388 1380 1379 1379 1379 1384 1389 1395 1401 1408 1411 1412 1415 1420 1425 1428 1430 1434 1438 1442 1447 1452 1459 1464 1471 1477 1484 1491 1497 1503 1509 1515 1519 1523 1527 1531 1534 1535 1542 1546 1548
1395 1391 1384 1379 1376 1376 1378 1381 1385 1389 1395 1403 1408 1410 1413 1418 1422 1426 1428 1431 1435 1439 1444 1449 1454 1460 1466 1472 1479 1486 1492 1499 1505 1511 1516 1521 1526 1530 1531 1534 1539 1541 1545
1391 1387 1383 1377 1376 1374 1376 1378 1381 1385 1390 1398 1403 1406 1410 1414 1419 1423 1426 1429 1432 1436 1440 1445 1448 1452 1460 1466 1473 1481 1489 1496 1503 1509 1514 1517 1521 1525 1528 1532 1535 1537 1542
1388 1384 1380 1376 1375 1372 1373 1376 1378 1382 1386 1393 1398 1403 1407 1411 1415 1419 1422 1425 1428 1431 1436 1438 1442 1446 1453 1459 1466 1473 1481 1490 1498 1503 1508 1511 1514 1521 1524 1527 1528 1534 1535
1385 1381 1377 1374 1370 1368 1369 1372 1377 1382 1385 1389 1394 1401 1405 1409 1412 1416 1418 1420 1424 1427 1428 1429 1434 1434 1443 1451 1458 1465 1474 1482 1490 1497 1502 1505 1509 1515 1518 1523 1526 1530 1532
1386 1381 1375 1371 1365 1364 1365 1367 1372 1378 1385 1389 1393 1398 1403 1406 1410 1412 1414 1417 1419 1421 1421 1419 1423 1429 1434 1442 1450 1457 1466 1474 1483 1491 1496 1500 1504 1508 1514 1518 1521 1523 1526
1387 1380 1375 1369 1363 1362 1362 1364 1368 1375 1382 1389 1392 1397 1402 1404 1407 1409 1411 1414 1415 1416 1417 1419 1421 1427 1431 1435 1444 1451 1458 1466 1477 1484 1491 1492 1499 1504 1508 1511 1514 1517 1519
1384 1378 1378 1372 1366 1363 1361 1362 1366 1371 1379 1386 1391 1395 1400 1403 1405 1407 1410 1412 1413 1415 1417 1418 1421 1425 1430 1436 1438 1446 1453 1462 1472 1479 1484 1491 1494 1498 1502 1505 1508 1509 1511
1387 1382 1383 1378 1372 1365 1361 1361 1364 1368 1376 1382 1389 1392 1396 1400 1404 1407 1410 1411 1414 1415 1417 1420 1423 1425 1428 1433 1438 1443 1452 1460 1468 1475 1481 1485 1489 1492 1496 1498 1501 1502 1504
1381 1385 1384 1377 1368 1364 1362 1361 1362 1366 1372 1378 1385 1388 1393 1398 1402 1407 1410 1412 1414 1416 1419 1421 1424 1427 1430 1434 1438 1443 1453 1458 1466 1471 1476 1480 1484 1487 1490 1492 1494 1495 1496
1379 1382 1381 1377 1370 1364 1361 1360 1360 1364 1369 1374 1380 1385 1390 1395 1400 1405 1408 1411 1414 1416 1418 1421 1426 1429 1432 1437 1440 1446 1452 1457 1462 1467 1471 1475 1480 1483 1485 1487 1488 1489 1489
1380 1382 1379 1373 1368 1363 1361 1360 1358 1361 1365 1370 1375 1381 1387 1391 1396 1401 1406 1409 1412 1415 1418 1422 1426 1430 1434 1438 1442 1447 1451 1456 1461 1465 1469 1471 1474 1476 1478 1479 1481 1483 1484
1378 1379 1374 1370 1368 1363 1359 1357 1359 1359 1362 1366 1372 1378 1384 1388 1393 1398 1401 1406 1411 1415 1418 1422 1426 1430 1435 1439 1443 1447 1450 1454 1458 1461 1463 1466 1468 1470 1473 1476 1478 1480 1482
1379 1376 1373 1369 1366 1362 1357 1350 1356 1356 1358 1362 1368 1374 1380 1384 1388 1394 1400 1405 1410 1414 1418 1422 1426 1430 1434 1438 1441 1445 1447 1450 1453 1457 1460 1462 1465 1469 1471 1474 1476 1479 1482
1378 1376 1374 1372 1369 1365 1357 1348 1346 1354 1355 1361 1366 1371 1376 1381 1385 1391 1397 1403 1408 1413 1417 1421 1425 1428 1432 1436 1439 1442 1443 1446 1448 1453 1456 1461 1464 1467 1471 1474 1477 1481 1482
1378 1376 1374 1371 1366 1360 1352 1350 1347 1350 1353 1360 1364 1370 1376 1379 1383 1388 1394 1400 1405 1410 1414 1418 1422 1427 1431 1433 1435 1438 1440 1442 1444 1450 1454 1461 1465 1469 1472 1475 1478 1480 1484
1374 1373 1371 1365 1359 1357 1353 1350 1348 1349 1350 1359 1364 1368 1374 1377 1379 1385 1390 1395 1401 1405 1410 1414 1418 1423 1427 1431 1434 1435 1437 1439 1443 1450 1456 1462 1466 1469 1471 1474 1476 1479 1482
1373 1370 1366 1363 1361 1359 1356 1353 1351 1354 1354 1357 1361 1366 1371 1373 1375 1382 1384 1389 1395 1399 1404 1410 1414 1418 1425 1432 1436 1440 1443 1448 1448 1454 1461 1462 1467 1471 1475 1476 1477 1480 1483
1372 1369 1366 1363 1362 1360 1357 1355 1355 1356 1355 1355 1357 1362 1366 1370 1376 1381 1385 1387 1393 1399 1403 1404 1412 1417 1423 1431 1439 1446 1446 1450 1456 1455 1459 1465 1468 1472 1473 1478 1479 1480 1482
1373 1371 1367 1366 1365 1364 1362 1360 1360 1359 1359 1359 1361 1363 1363 1368 1372 1380 1385 1390 1396 1401 1405 1407 1416 1419 1425 1433 1440 1444 1448 1452 1454 1460 1465 1463 1469 1472 1475 1477 1482 1480 1483
1379 1376 1374 1372 1369 1367 1365 1364 1364 1363 1363 1365 1365 1367 1369 1372 1377 1382 1389 1399 1404 1410 1415 1419 1420 1430 1437 1435 1440 1445 1448 1454 1457 1462 1467 1467 1469 1472 1477 1481 1481 1480 1482